RH
14 13 11 10 10 10 11 12 13 13 13 13 13 12 12 11 10 10 9 9 8 8 10 12 12 13 15 15 15 14 14 15 16 16 15 14 13 13 13 14 17 21 24 26 28 29 30 30 29 28 28 31 35 38 40 44 46 47 46 45 43 42 41 41 40 40 40 40 41 43 45 47 48 48 46 45 44 44 44 45 46 49 49 47 42
13 12 11 10 9 9 11 11 12 12 13 13 13 13 13 13 12 12 11 10 8 8 9 11 12 13 15 17 18 17 16 16 17 16 16 17 16 15 14 13 13 15 17 21 24 27 28 28 29 29 27 27 29 30 32 36 40 43 45 45 45 44 43 42 40 40 41 40 40 41 41 43 45 47 47 46 45 45 45 45 46 49 49 46 43
12 11 11 10 9 9 9 11 12 12 12 12 13 13 14 14 14 14 13 12 9 7 8 10 12 13 13 15 16 17 17 16 16 15 16 16 17 17 16 16 14 14 13 14 17 21 23 25 27 29 29 26 26 27 27 28 31 34 39 42 44 45 44 43 42 41 41 40 39 40 41 41 42 44 45 47 48 47 48 48 49 50 48 45 43
13 10 9 9 9 9 9 9 11 11 12 12 13 14 14 15 15 15 15 14 11 8 7 9 11 12 13 13 14 14 15 15 15 15 15 14 15 15 15 15 15 15 14 13 14 14 17 20 24 27 29 27 26 25 25 25 26 27 31 35 39 43 44 44 43 43 43 41 39 40 40 40 42 43 43 44 46 46 48 50 52 51 49 46 43
18 11 8 9 9 9 9 9 9 10 11 12 12 14 15 15 15 16 15 15 13 9 7 7 9 11 11 12 12 13 13 14 14 14 13 13 13 13 13 14 14 14 14 15 15 14 13 14 17 21 24 25 26 26 24 24 25 25 27 29 33 37 40 41 42 42 43 42 42 42 40 39 41 42 43 43 43 44 45 46 48 49 49 48 47
24 14 8 7 8 9 9 9 8 9 10 11 12 13 14 15 15 15 15 15 14 11 8 6 7 9 9 10 11 11 12 13 13 12 13 12 12 13 13 13 14 14 14 14 14 15 15 14 15 16 17 20 23 24 25 25 24 24 24 25 28 31 35 37 38 39 40 40 42 42 41 41 41 41 41 42 42 43 43 44 44 44 45 47 50
29 20 12 7 6 7 8 8 8 9 9 10 11 12 12 13 14 14 15 15 15 13 9 7 6 7 8 9 9 10 11 11 12 12 12 12 12 12 13 13 13 13 14 14 14 15 16 16 17 16 15 15 16 18 21 23 23 23 23 24 26 28 29 31 33 34 36 37 38 39 39 39 39 40 39 40 41 41 42 43 44 44 43 43 46
32 27 20 12 8 6 6 7 8 9 9 9 10 11 11 12 13 13 14 14 14 14 11 8 7 7 8 8 9 9 10 10 11 11 12 12 12 12 12 13 13 13 14 15 15 16 16 17 18 18 18 18 17 17 18 18 20 21 22 23 25 26 27 28 28 30 31 33 34 35 36 37 37 38 38 38 39 38 37 38 40 42 43 44 44
33 32 27 21 14 10 7 6 6 7 8 9 9 10 10 10 11 12 12 13 13 13 12 9 7 7 7 8 9 10 10 10 10 11 11 11 12 12 13 13 14 14 15 15 16 17 17 18 18 18 19 20 20 20 20 20 20 19 19 20 22 23 25 25 26 27 28 28 29 30 32 34 35 36 37 36 37 36 35 35 35 35 37 40 43
32 33 32 29 24 20 14 9 6 5 5 6 7 9 9 9 10 10 10 11 12 12 12 10 8 7 7 8 9 9 9 9 10 11 11 12 13 13 14 15 16 16 17 19 20 20 20 21 21 21 20 20 21 21 21 22 22 21 21 22 21 21 21 21 21 22 23 24 25 26 27 29 31 33 34 34 36 36 36 35 35 34 34 34 36
29 30 32 32 32 30 25 19 12 7 5 5 5 6 8 9 9 9 9 9 10 11 11 9 8 7 7 8 8 9 9 10 11 12 13 13 14 16 17 18 20 21 23 24 25 26 27 27 26 26 25 23 23 22 22 22 22 23 24 24 25 24 23 22 20 19 19 18 18 20 21 22 25 28 30 32 34 35 35 36 36 36 35 33 32
26 28 29 31 32 32 32 29 23 16 10 7 5 5 7 7 7 8 8 8 8 9 9 9 8 7 8 8 9 10 11 13 13 15 16 17 18 20 22 24 25 27 30 32 33 35 36 36 36 35 34 33 32 31 29 27 26 25 25 25 26 26 26 25 24 22 20 17 16 16 16 17 19 21 23 26 29 32 34 37 37 37 37 35 33
22 24 26 28 29 31 33 33 31 27 21 14 10 7 6 6 6 7 7 7 8 7 8 8 7 8 9 10 12 14 15 17 18 20 22 24 26 28 31 34 36 37 38 40 42 44 44 45 45 44 45 45 46 45 43 42 40 38 35 32 30 28 27 25 23 24 23 21 18 15 15 18 18 17 20 23 25 28 30 32 35 36 37 36 35
17 19 21 23 26 28 31 32 33 33 31 26 20 13 10 8 7 7 6 7 7 7 7 8 9 11 13 16 18 19 20 23 26 29 31 33 37 40 42 44 45 45 46 46 46 46 46 47 47 47 49 50 50 51 52 53 54 53 51 48 44 40 35 29 25 26 26 24 20 18 20 24 23 21 24 27 26 26 27 29 32 32 32 35 38
15 16 17 19 21 23 26 29 32 34 35 34 30 24 19 15 13 12 11 11 11 11 12 13 16 20 23 25 26 24 25 30 34 37 39 42 45 46 47 48 47 46 46 46 45 45 45 46 46 46 47 47 48 50 51 53 55 55 55 54 52 51 46 40 38 38 36 33 30 27 27 29 30 29 29 30 29 28 29 31 32 32 32 33 33
14 14 14 15 16 18 21 24 28 31 34 35 35 33 29 25 22 20 19 19 19 19 20 23 27 30 32 33 31 27 29 36 40 41 44 45 46 46 46 46 45 43 43 44 44 44 44 45 45 45 45 45 46 48 49 51 51 50 49 49 49 49 44 41 45 48 49 49 49 47 46 46 45 40 37 35 32 31 34 34 34 33 33 32 29
12 12 12 13 13 14 17 20 23 26 29 31 34 36 36 33 30 27 26 27 28 27 27 29 32 34 36 35 31 27 30 37 40 41 43 44 44 44 44 43 43 42 42 42 42 42 42 43 43 43 42 42 44 46 47 48 47 47 46 46 47 45 41 41 46 49 50 55 59 61 62 63 60 55 50 47 43 44 44 38 35 36 36 32 30
12 12 12 13 12 13 14 17 21 24 24 26 29 32 35 36 36 34 33 33 33 32 32 33 34 35 36 35 32 29 31 36 38 39 41 42 42 42 42 41 40 39 39 40 41 41 41 42 42 42 41 40 42 44 45 45 45 44 44 45 46 43 40 44 49 50 52 56 59 60 59 58 58 56 55 56 59 63 57 44 42 46 43 37 35
12 12 12 13 13 12 12 14 18 23 25 26 28 30 32 35 36 37 37 37 37 36 36 36 36 36 36 36 35 34 33 35 37 37 38 39 40 40 39 38 37 36 37 38 39 39 39 40 40 41 40 40 42 43 43 44 44 42 45 48 45 38 39 47 50 50 50 52 54 55 54 55 56 55 56 61 68 73 70 63 63 62 51 41 42
12 12 12 12 12 13 12 12 14 19 24 27 30 31 33 33 33 33 34 36 37 38 38 38 37 38 38 37 37 37 36 37 37 38 38 39 39 39 38 36 35 35 36 35 35 35 36 37 38 40 41 42 43 43 43 43 42 42 45 45 40 40 53 62 57 51 51 51 52 52 51 53 57 59 62 66 70 75 77 79 83 83 74 64 58
11 12 12 12 12 12 12 12 13 15 19 24 28 31 32 32 32 30 30 31 32 34 35 36 36 36 37 37 37 37 38 38 38 38 39 39 39 38 36 35 34 34 34 32 32 32 34 35 37 39 41 43 42 42 42 41 42 42 42 46 55 66 73 69 58 53 51 48 47 48 47 46 47 48 52 57 61 66 71 76 81 87 92 91 84
11 11 11 11 11 11 11 11 12 13 16 20 25 28 30 31 31 31 29 28 29 29 30 31 32 33 34 35 35 35 36 37 37 37 37 37 37 36 34 33 33 33 32 32 32 34 35 37 38 39 40 40 39 40 41 40 42 42 39 52 75 82 71 63 62 61 57 54 53 51 47 43 41 40 41 44 46 49 54 59 63 74 91 99 95
11 10 11 10 10 10 10 10 11 12 14 16 20 24 28 30 31 31 30 29 29 28 29 29 29 30 30 31 31 32 33 34 34 34 34 33 33 33 32 32 33 34 34 33 34 37 38 38 38 37 38 38 38 39 40 39 42 42 38 54 82 86 69 65 73 72 68 68 65 56 49 49 51 49 48 51 53 55 56 53 52 61 79 89 87
11 10 11 10 10 10 10 10 11 12 13 15 17 19 23 26 28 30 30 30 30 29 29 29 28 27 27 27 28 29 30 31 31 31 30 30 31 32 32 33 34 36 36 36 37 38 38 37 37 37 38 39 38 39 39 37 39 40 37 49 72 76 60 57 70 79 77 71 64 53 46 49 55 57 61 68 70 68 64 60 62 69 78 82 84
11 10 10 10 10 10 10 10 10 10 12 15 16 17 19 21 24 26 28 29 29 28 28 28 26 25 25 25 26 27 28 29 29 29 29 30 31 33 33 35 36 37 37 36 36 36 35 35 37 37 36 36 36 35 34 33 34 35 34 35 41 41 32 31 42 54 55 50 48 42 36 40 54 65 70 71 68 63 60 58 61 68 73 75 77
11 10 10 10 10 10 10 10 10 11 13 15 16 17 17 18 19 22 24 26 27 27 28 27 25 25 25 25 26 28 29 29 29 29 30 31 32 33 34 35 36 36 35 34 34 34 35 37 38 37 34 32 32 30 30 30 29 28 26 23 21 20 19 17 19 23 23 23 28 29 26 33 48 56 60 61 60 63 67 62 57 59 65 71 75
11 11 11 10 10 10 10 10 9 9 11 15 17 17 17 18 18 18 19 21 23 24 26 26 26 26 27 28 29 30 31 31 30 30 31 32 32 33 34 34 34 34 34 35 36 37 38 38 36 33 31 29 29 27 26 24 22 19 17 17 17 16 17 17 18 19 20 19 22 25 25 29 34 39 49 58 58 62 71 71 66 66 67 69 77
11 11 11 11 11 11 10 10 10 9 10 13 16 17 18 17 17 17 18 18 19 21 21 22 24 25 26 28 30 32 32 33 32 32 32 33 33 33 33 33 34 35 37 39 39 38 36 34 31 29 28 26 23 21 18 16 16 16 15 16 17 17 17 19 20 20 21 23 26 28 29 31 33 37 47 54 52 53 63 68 69 73 76 76 79
12 12 12 11 11 11 10 10 10 9 9 11 14 16 16 16 16 17 17 17 18 19 20 21 21 22 23 24 25 27 29 30 31 32 32 32 32 32 34 35 37 38 38 37 36 34 31 29 28 25 23 20 17 16 16 16 16 17 17 17 17 17 17 19 20 21 23 27 29 30 31 33 35 37 39 39 38 39 46 52 56 62 72 79 78
12 12 12 12 12 11 11 11 11 10 10 11 13 14 14 14 15 16 17 19 20 20 20 21 21 21 22 23 23 25 27 29 30 31 32 32 33 33 35 35 35 35 34 32 30 28 25 23 21 19 17 16 16 16 17 17 17 17 17 17 18 18 18 20 21 22 23 25 25 27 29 31 32 33 34 33 33 33 35 37 37 41 54 67 71
13 13 12 12 12 11 11 10 10 10 9 10 12 14 14 14 15 16 17 19 20 21 21 21 22 23 25 27 28 27 28 31 32 33 35 36 35 34 32 30 29 28 27 25 22 20 19 17 17 17 17 17 18 18 18 18 17 17 17 17 17 18 19 20 21 22 23 23 23 24 25 27 28 28 29 30 31 32 35 36 36 43 63 78 78
13 13 13 12 12 12 12 11 11 11 11 12 14 15 16 16 15 16 19 20 19 19 19 20 22 24 27 30 32 33 35 36 37 38 39 37 33 29 26 23 22 21 20 19 17 17 17 17 17 18 18 18 18 18 18 17 17 17 17 17 17 17 18 19 21 22 23 23 24 25 26 27 27 27 28 30 32 33 35 37 41 53 71 85 86
14 13 13 13 13 13 13 12 12 12 13 16 18 18 18 19 18 19 21 22 22 22 21 23 27 31 34 35 36 37 41 44 43 40 37 32 27 23 20 19 18 17 17 17 17 17 18 18 18 18 19 19 19 18 17 17 16 16 16 16 16 17 19 21 22 23 24 26 27 27 27 27 27 28 29 31 34 36 38 43 51 64 79 90 94
15 14 13 14 15 16 16 17 18 18 18 19 22 23 23 23 23 25 27 28 29 29 30 33 38 43 46 44 42 41 43 44 42 35 28 24 21 19 19 18 18 18 19 19 19 19 19 19 20 20 20 19 19 18 18 17 17 17 17 19 20 21 22 24 25 25 26 27 26 27 28 28 28 30 32 33 37 40 42 47 56 66 78 89 94
16 16 15 15 15 16 17 17 17 19 21 22 23 26 27 29 33 41 49 53 54 55 54 52 50 49 47 43 39 36 35 34 32 27 22 20 20 19 19 20 20 20 21 20 20 20 20 21 21 21 21 21 21 21 21 21 21 22 23 23 24 24 24 25 25 25 25 25 25 27 29 30 30 32 34 36 38 40 44 50 57 66 77 89 95
20 20 20 18 20 27 35 39 36 31 30 33 38 44 51 55 59 64 68 70 72 74 73 68 58 46 38 33 29 27 25 24 23 21 20 21 21 22 22 22 22 22 22 21 21 22 22 23 24 24 25 26 26 25 26 26 27 28 28 28 28 27 26 24 23 23 23 23 24 25 26 28 30 33 36 38 38 41 47 56 63 71 82 92 96
23 25 25 23 25 34 48 62 67 63 59 60 64 70 75 76 74 72 70 67 67 69 69 65 56 42 30 26 24 23 22 22 22 22 23 23 24 24 24 23 23 22 22 22 23 25 26 27 29 29 29 29 30 30 30 31 32 32 33 34 33 31 29 27 25 25 25 26 27 27 26 27 28 30 34 37 38 43 53 63 69 75 85 92 96
27 27 28 29 30 31 36 46 58 64 66 69 72 74 76 77 75 72 66 59 57 58 58 56 50 39 28 23 24 23 24 25 25 26 26 26 26 26 26 25 25 25 25 26 27 30 32 32 31 31 31 31 33 34 34 34 36 36 37 37 37 35 34 32 31 33 36 38 40 39 39 40 41 42 43 45 47 53 64 73 77 84 93 98 98
31 31 31 31 32 33 33 36 42 47 53 60 66 69 73 75 74 70 60 49 45 46 46 44 41 35 28 27 29 29 29 30 30 30 30 30 30 29 28 28 29 29 30 32 33 34 34 33 32 32 34 35 36 38 38 38 40 40 40 40 40 40 39 39 41 45 48 49 49 49 49 49 49 49 49 51 53 57 65 72 79 87 95 98 98
34 34 34 32 31 32 33 34 34 35 38 44 51 56 60 60 58 53 45 36 33 33 32 32 34 33 32 35 36 35 34 35 34 34 34 33 32 32 32 33 35 36 37 37 36 35 34 34 35 36 37 38 40 42 42 43 44 45 45 45 44 45 45 47 49 53 56 56 55 56 56 54 51 51 53 55 56 56 58 62 69 76 83 91 98
36 35 35 34 33 32 32 32 32 32 33 36 40 45 47 47 43 39 35 31 31 32 33 35 37 38 39 40 40 40 40 40 39 37 36 35 36 39 40 40 41 41 39 38 36 36 36 37 38 38 39 41 44 47 48 49 50 50 51 50 50 51 51 52 54 59 63 65 66 66 66 64 62 63 66 68 68 66 63 61 64 69 77 88 96
39 37 35 34 35 34 35 36 38 39 39 40 41 42 43 42 41 40 40 41 42 43 44 45 46 46 45 44 44 43 43 42 42 42 41 41 43 44 44 43 41 39 38 39 39 39 39 39 39 40 41 44 49 52 53 54 55 56 56 56 57 57 56 55 58 62 65 69 72 73 73 72 71 73 78 80 78 75 73 73 76 80 85 90 94
40 38 36 37 39 40 42 44 46 47 48 47 47 46 46 46 47 48 48 49 50 50 51 51 50 49 48 47 47 47 46 45 45 46 45 45 45 43 42 41 39 38 39 41 40 40 40 39 39 41 45 51 56 58 58 58 58 60 61 61 61 60 58 58 60 63 66 70 76 79 80 79 76 78 85 89 87 83 81 82 84 86 88 90 93
44 43 42 43 46 48 49 50 50 51 52 52 52 53 53 53 54 54 53 53 53 53 52 52 51 50 50 51 51 51 51 49 48 48 47 46 45 42 41 41 41 42 43 43 41 41 39 39 42 47 53 58 61 61 61 62 63 64 65 65 63 61 59 60 61 62 64 69 75 79 81 82 80 81 86 92 94 92 90 89 89 90 90 91 92
52 52 51 52 53 55 55 55 56 56 57 57 57 57 58 58 58 57 57 56 56 55 55 54 54 53 53 53 53 52 51 49 48 47 46 45 44 42 42 43 44 44 44 42 41 41 40 42 49 58 63 65 66 64 64 66 67 68 69 68 63 59 57 57 58 58 59 62 66 69 72 75 76 78 81 85 89 91 91 91 91 89 87 85 83
65 64 62 62 62 62 62 63 63 63 63 63 62 62 62 62 61 61 61 60 60 60 59 58 58 57 56 55 54 53 53 52 50 49 47 46 46 46 47 48 47 46 44 43 43 44 47 52 60 67 71 72 70 67 67 69 71 72 72 70 64 56 52 51 51 52 55 59 61 62 63 64 66 67 69 71 73 74 76 77 77 75 72 71 70
74 73 72 70 70 70 69 69 69 69 68 68 68 67 66 66 65 64 64 63 62 61 60 59 59 58 57 56 55 54 53 52 51 50 49 48 48 48 48 47 45 45 44 46 49 54 59 64 68 71 75 76 74 70 70 73 74 75 75 74 68 59 53 53 53 52 53 56 59 60 60 59 60 61 63 65 67 69 71 72 73 74 74 73 72
73 71 71 70 70 71 71 71 71 71 70 69 69 68 67 66 65 64 63 61 60 60 59 58 57 56 55 54 53 52 51 50 50 49 49 49 48 47 46 45 45 47 52 59 66 70 73 74 74 74 76 78 76 74 74 77 78 78 78 78 75 67 60 58 59 57 54 54 57 59 59 60 60 61 63 66 68 72 75 76 77 76 75 71 66
66 65 65 65 64 64 64 64 65 65 64 64 63 63 62 61 61 60 59 58 58 57 56 55 54 52 51 50 48 47 46 45 45 45 46 45 45 45 43 42 43 48 58 68 73 72 72 73 74 77 80 82 80 78 78 79 80 81 81 83 82 76 68 65 67 66 61 57 55 56 58 60 61 62 65 68 71 73 73 74 75 74 71 65 58
61 60 61 60 59 58 58 58 58 58 58 58 58 57 57 57 57 57 56 56 55 54 53 51 49 47 46 44 43 42 41 40 40 41 41 41 42 44 47 50 54 61 71 77 78 76 76 77 77 80 84 87 84 80 77 78 82 85 87 88 89 86 77 71 71 72 68 61 57 56 58 60 63 64 67 71 74 75 73 73 73 71 67 61 56
61 59 59 59 58 57 58 57 57 57 57 57 57 56 56 56 55 55 54 53 51 50 49 47 46 45 44 44 44 45 46 47 48 50 53 57 63 67 71 75 80 86 91 93 93 91 91 91 89 90 93 94 90 84 81 82 87 90 91 93 94 92 86 79 78 77 73 66 63 62 62 62 64 68 71 74 76 77 74 72 72 71 68 63 58
Wind_Speed
31 29 29 29 30 30 30 30 28 27 27 26 25 23 22 21 20 20 21 20 19 20 20 19 17 15 14 12 11 10 9 8 6 5 5 4 5 5 6 7 9 11 12 13 13 13 13 13 12 12 12 12 11 11 10 9 9 8 7 6 4 3 3 2 3 3 3 4 4 5 5 6 7 9 9 10 10 10 10 10 10 10 11 11 12
31 29 29 29 30 31 30 30 29 28 28 27 26 25 23 22 21 21 21 20 19 19 20 19 18 17 16 14 12 11 9 7 6 6 5 4 4 3 3 4 5 8 10 11 12 13 13 14 14 14 14 13 12 12 11 10 10 10 9 9 8 7 7 6 5 5 5 5 4 4 4 5 6 8 9 9 10 10 10 11 10 11 12 12 12
30 28 28 27 28 30 30 30 30 29 29 29 27 26 24 22 22 22 21 20 20 19 20 20 19 18 17 16 15 13 11 9 8 6 5 4 4 3 2 2 3 4 5 7 10 12 13 14 14 15 16 15 14 13 13 13 12 12 12 12 11 11 11 10 9 9 8 8 7 6 7 6 6 7 9 10 11 11 11 12 12 12 13 12 13
29 28 28 26 27 29 31 32 32 31 31 30 28 26 25 24 23 22 21 21 21 20 20 21 21 20 19 17 16 15 13 12 10 9 7 6 6 5 5 4 3 3 3 5 7 9 11 12 13 15 17 17 16 15 16 16 15 14 14 14 14 14 14 14 14 13 13 12 11 11 11 10 9 10 10 11 12 13 13 14 14 14 14 14 14
27 27 27 27 28 29 30 32 32 33 32 30 29 27 25 25 24 23 22 21 21 20 21 22 23 22 20 19 17 16 14 14 13 11 10 9 9 9 8 8 7 6 6 6 7 7 9 10 12 15 17 18 18 18 18 18 18 18 17 17 17 17 18 18 18 18 18 17 16 16 15 14 13 13 13 13 14 15 15 16 16 16 16 16 15
26 26 25 26 27 28 30 31 32 32 32 31 29 28 26 26 25 24 22 22 21 21 21 22 22 22 20 19 18 17 17 16 15 14 13 12 12 12 11 11 10 10 9 9 9 9 10 9 11 14 17 18 18 19 20 20 20 20 20 20 20 20 20 21 21 22 22 21 20 20 20 19 17 17 16 17 17 17 16 17 19 19 18 18 18
26 25 24 24 26 28 29 30 30 31 31 30 29 28 28 27 26 25 23 23 22 21 21 22 21 21 19 18 18 18 18 18 17 17 16 15 15 14 13 13 12 12 12 12 13 13 13 12 12 13 15 16 17 18 20 22 23 23 23 23 24 24 24 24 24 25 25 24 24 24 24 24 23 21 20 20 21 20 18 19 22 22 21 21 21
25 24 23 24 24 25 26 27 28 29 29 29 29 29 28 28 27 25 25 24 24 22 22 21 21 21 20 19 19 18 18 19 19 18 18 17 16 15 14 14 14 14 15 15 16 16 16 16 15 15 15 15 16 16 18 20 23 24 25 26 27 28 28 28 28 29 29 29 28 27 27 28 28 26 25 24 24 21 20 22 24 25 24 25 25
25 24 24 23 22 21 22 23 25 26 27 28 28 28 28 28 27 27 26 26 25 24 23 22 22 22 21 21 21 20 20 19 18 18 17 16 16 15 15 15 16 16 17 18 18 19 19 19 19 18 18 18 18 19 19 20 21 23 24 26 28 30 30 31 31 32 32 33 32 31 31 32 31 31 30 28 27 25 24 27 28 27 28 29 28
26 25 25 22 20 19 20 20 21 23 24 25 26 27 28 28 28 28 27 27 26 25 24 23 23 22 21 21 22 22 21 19 17 17 16 16 16 16 16 16 17 18 19 19 20 20 20 21 21 21 21 21 21 22 22 22 23 23 22 24 26 28 30 32 33 34 34 36 36 35 35 35 34 33 33 32 30 29 30 31 31 30 31 33 32
27 27 25 23 21 21 20 20 20 20 21 23 24 25 26 27 28 28 27 27 26 26 25 24 23 22 21 21 21 21 20 18 17 17 16 16 16 17 17 18 19 20 20 20 20 20 20 21 21 22 22 23 23 24 24 25 26 25 25 25 27 27 29 30 32 33 35 36 37 37 39 38 36 35 35 34 34 34 34 34 34 34 35 36 35
29 28 27 25 24 24 23 22 21 20 20 21 22 23 25 27 27 27 27 27 26 26 26 25 24 22 21 21 21 21 19 18 17 17 17 17 17 18 19 19 19 19 19 19 19 18 19 19 19 20 20 21 22 23 25 25 26 27 27 28 29 30 30 32 33 34 34 36 37 38 39 39 37 37 37 36 36 36 36 37 37 38 39 40 40
30 29 29 28 27 27 26 25 23 22 21 20 20 22 24 25 26 26 26 26 26 26 26 25 24 22 22 21 21 20 19 18 18 18 17 17 18 19 20 19 20 19 19 19 19 19 19 19 20 20 20 20 21 22 23 23 24 25 25 27 29 30 31 32 34 35 36 37 38 39 38 37 37 36 35 36 37 39 40 40 40 41 42 43 42
28 28 29 29 30 29 28 28 27 25 24 22 22 22 23 23 24 24 25 25 26 25 25 24 23 23 22 21 21 21 20 19 18 18 17 17 17 19 20 20 21 21 21 21 21 21 20 21 22 21 21 22 22 23 23 23 23 24 25 26 27 28 29 31 32 34 36 38 40 40 38 38 38 36 34 35 37 39 40 41 42 43 45 44 42
24 24 25 26 27 28 30 30 30 29 28 26 25 25 24 23 23 23 24 24 24 24 23 23 23 23 22 22 21 21 20 19 18 18 18 17 18 20 21 23 23 24 24 24 24 24 24 24 25 24 24 24 24 25 26 26 27 27 27 28 28 28 29 30 30 32 34 36 37 38 37 38 38 36 35 37 38 38 39 40 41 43 45 46 45
21 21 21 21 23 25 27 29 31 32 31 31 30 28 26 25 24 23 23 24 23 23 23 23 23 23 23 23 23 23 21 20 20 20 20 20 21 23 24 25 26 26 26 26 27 27 27 27 27 27 27 27 27 28 29 30 31 30 30 30 29 30 30 30 30 32 33 34 35 35 35 36 36 37 36 38 40 39 39 40 42 44 45 46 47
20 19 17 17 17 18 21 24 27 30 32 33 34 33 31 29 27 26 26 25 25 24 24 24 24 24 24 24 24 24 23 23 23 23 23 23 24 26 27 27 28 28 28 28 28 28 29 29 29 29 29 29 30 31 32 34 34 34 33 32 32 32 31 31 33 34 35 36 36 36 36 36 37 37 36 38 39 38 40 43 43 43 45 46 47
21 19 17 15 15 14 15 18 22 25 29 31 33 34 34 34 32 30 29 28 28 27 26 26 26 26 26 26 26 26 25 25 26 26 27 27 28 29 29 29 30 29 29 29 29 30 30 30 30 31 31 31 32 33 34 36 37 37 37 37 36 34 32 33 36 37 38 39 39 38 39 38 38 38 39 39 40 39 42 45 44 43 46 48 47
23 21 18 17 16 15 14 15 18 22 25 26 27 29 31 34 35 35 34 33 32 31 30 30 29 28 28 28 28 28 28 28 28 29 30 30 30 30 31 31 31 31 31 31 30 31 31 31 31 32 32 33 35 35 37 38 40 39 40 41 40 36 35 37 39 39 41 43 41 40 40 40 40 41 42 43 44 44 45 46 45 45 48 49 48
24 22 20 19 18 17 16 15 16 20 22 23 23 24 25 28 31 34 36 37 36 36 35 34 32 31 30 30 30 30 30 31 31 32 32 32 32 33 33 33 33 32 32 32 32 32 32 32 33 34 35 36 36 37 38 40 41 42 43 44 43 40 38 40 41 41 43 45 44 43 43 43 43 44 45 47 49 49 49 49 49 49 50 51 50
24 23 22 21 19 19 18 17 16 18 20 22 23 23 24 25 26 29 32 35 36 37 37 36 35 34 33 33 33 33 33 33 34 34 34 34 34 34 34 34 34 33 33 32 32 33 33 35 36 37 38 38 38 39 39 40 41 43 44 47 46 42 40 41 41 42 43 45 46 46 46 46 46 47 48 50 51 52 53 53 52 53 54 55 53
24 23 23 23 22 21 20 20 19 18 19 22 24 25 25 25 26 27 28 30 32 33 34 35 35 35 35 35 35 35 35 35 35 35 35 35 35 35 35 35 34 35 34 33 34 35 36 37 38 38 40 40 39 39 38 38 40 40 43 47 45 38 37 41 41 40 41 42 44 46 46 46 46 47 48 49 51 53 54 55 56 57 59 59 57
24 24 24 24 24 24 23 22 21 20 20 21 24 26 27 27 27 28 28 28 29 30 30 31 33 33 34 34 34 35 36 36 36 36 35 35 35 35 35 35 35 36 36 35 36 38 38 38 38 38 38 38 38 37 36 36 37 37 39 44 42 35 34 38 39 37 38 39 42 46 48 48 49 50 51 50 49 49 51 53 55 56 58 59 59
25 24 24 24 25 25 25 24 23 23 22 22 23 25 27 28 29 29 29 30 30 30 31 31 32 33 33 34 34 35 36 36 36 36 35 35 36 36 36 36 37 38 38 37 38 39 38 37 36 35 34 34 33 34 33 33 34 34 35 39 41 37 35 37 39 39 39 41 44 48 51 52 52 53 53 52 50 49 51 53 54 54 56 58 58
26 25 25 25 25 25 25 25 25 24 23 24 24 24 25 27 29 30 31 32 32 32 33 33 34 34 34 34 35 35 36 37 37 36 35 35 36 36 37 38 39 39 39 38 37 37 36 35 33 31 30 30 30 31 31 31 32 33 34 37 40 40 38 40 42 43 44 46 49 51 52 52 53 54 54 53 53 53 54 56 58 58 58 58 59
28 27 26 26 26 26 25 26 25 24 23 24 25 25 25 26 28 30 32 33 34 34 34 35 35 35 35 35 35 36 37 37 37 36 35 35 36 37 38 38 38 38 38 36 35 35 34 32 31 29 28 29 30 31 32 32 33 35 36 39 42 42 42 43 45 47 49 51 52 52 52 51 52 54 55 54 55 55 54 55 58 59 59 59 60
31 30 29 28 28 27 27 27 26 25 24 24 25 26 26 27 27 28 29 32 33 35 36 36 36 36 36 36 36 37 38 38 37 37 37 37 37 37 37 37 36 36 36 34 33 32 30 29 29 28 28 29 31 32 33 35 35 36 37 40 42 44 46 47 48 50 53 54 54 54 53 50 50 53 55 55 54 53 51 53 56 59 59 59 60
34 33 32 31 30 29 29 29 28 27 27 26 26 27 27 27 27 27 28 29 30 31 33 35 36 36 37 37 38 38 39 40 39 39 38 38 37 36 35 34 34 33 32 31 30 29 28 28 29 30 31 32 33 34 36 36 37 37 39 42 44 46 49 50 51 51 53 54 55 54 52 50 49 51 54 56 54 51 49 52 55 56 57 59 61
34 35 35 34 33 32 32 32 31 31 31 30 29 28 28 28 28 28 29 29 29 30 30 31 32 33 35 36 37 38 38 38 38 37 36 35 33 32 31 31 30 29 28 28 28 28 28 29 30 31 33 34 35 36 37 38 39 39 41 44 46 48 51 52 53 53 53 53 54 54 53 52 51 52 54 57 57 53 52 54 56 57 60 63 63
32 33 34 35 35 35 34 33 32 33 33 33 31 30 30 31 31 30 29 29 30 30 29 29 29 30 31 32 33 34 34 33 33 32 31 30 29 28 27 26 26 26 26 26 27 28 29 30 31 32 34 36 36 37 38 40 41 43 44 46 47 49 50 52 53 54 54 54 55 56 56 55 55 55 56 59 60 59 59 59 59 59 60 61 62
29 30 31 32 34 34 33 32 32 32 33 33 32 32 32 32 32 32 31 30 30 29 28 27 27 26 27 27 27 27 28 27 27 27 26 25 25 23 23 23 24 25 26 27 28 29 30 31 32 33 34 35 37 39 40 43 45 46 47 48 48 49 50 51 52 53 55 56 57 57 57 57 57 57 57 58 60 62 62 63 62 61 61 61 62
26 26 27 28 30 30 30 30 30 31 32 33 33 32 32 32 31 31 30 30 29 28 27 26 24 24 23 22 22 22 22 22 23 23 22 22 21 21 22 23 24 25 27 28 30 31 32 32 33 34 35 36 38 41 43 45 47 49 50 51 50 49 50 50 50 52 53 54 55 56 57 56 56 57 59 60 60 61 62 62 62 60 59 59 61
25 25 24 25 26 28 28 29 29 30 31 31 31 31 30 29 28 28 27 27 27 26 25 24 22 22 21 21 20 20 20 20 20 21 21 21 21 21 23 24 25 27 28 29 31 31 32 32 33 34 36 38 40 42 44 46 48 50 51 52 52 50 50 49 50 50 51 52 53 54 54 54 55 56 58 59 60 59 59 58 57 54 53 55 57
24 24 24 24 25 26 27 27 28 28 29 29 28 28 27 26 26 25 24 24 24 24 24 22 21 20 20 20 20 20 20 20 20 20 21 21 22 23 25 26 27 28 28 29 30 31 31 32 34 35 37 39 41 44 45 47 48 49 50 50 50 49 49 48 48 49 50 50 51 52 51 51 52 54 55 56 56 57 56 55 53 50 48 49 49
23 23 23 23 24 25 26 26 26 26 26 26 26 25 25 24 24 23 23 22 22 22 22 20 20 19 20 20 20 20 20 21 21 21 22 22 23 25 26 27 27 28 28 29 30 30 31 33 34 36 38 40 42 44 45 46 46 47 47 47 47 47 48 48 48 49 49 50 51 51 50 49 50 52 53 53 53 54 55 55 53 51 48 47 49
22 22 22 22 22 23 23 23 23 23 23 24 23 22 21 21 21 21 22 23 23 23 22 21 21 21 21 21 21 22 22 22 23 23 24 24 25 26 26 27 28 28 29 30 30 31 32 34 35 36 38 40 41 42 43 44 44 44 45 45 46 46 47 49 50 50 50 50 50 50 50 50 51 52 53 54 55 55 55 53 50 48 46 47 51
21 22 22 22 22 21 20 20 20 20 21 21 20 20 20 21 22 23 23 23 24 24 23 23 23 22 22 22 23 23 23 24 24 25 25 25 26 26 27 28 28 29 30 30 30 31 33 34 35 36 37 39 40 40 41 42 42 43 43 44 45 46 47 49 50 51 52 52 52 52 52 52 52 53 54 54 54 54 53 50 46 43 41 42 44
22 22 23 22 22 22 21 21 21 22 23 23 23 23 24 25 25 26 26 25 25 25 25 25 25 24 24 24 24 24 24 24 25 25 25 26 26 27 27 28 29 29 29 29 30 31 32 33 35 36 37 38 38 38 39 40 41 42 42 43 44 45 46 47 48 49 50 49 48 47 46 44 44 44 45 45 46 48 49 45 39 34 33 35 39
22 23 24 24 23 23 22 21 22 23 24 25 26 27 28 28 28 29 28 27 26 26 26 26 25 25 24 23 24 24 24 25 25 25 26 26 27 28 28 29 29 29 29 29 30 30 31 33 34 35 36 36 36 37 38 38 39 40 41 41 42 43 44 45 45 44 43 41 38 35 32 31 30 29 27 27 28 31 34 34 29 26 26 28 32
23 24 24 25 25 24 24 23 22 22 23 24 26 27 29 30 30 30 29 28 27 26 26 25 24 24 23 23 24 24 24 25 26 26 27 27 28 28 28 28 28 28 29 30 30 31 32 33 33 34 34 34 34 35 36 36 37 38 39 39 40 41 41 42 41 39 36 34 32 29 28 28 27 27 26 27 27 26 24 23 22 21 21 19 19
23 24 24 24 24 24 24 24 23 23 23 24 26 27 29 29 29 28 27 26 25 24 23 23 23 23 23 24 24 25 25 26 27 28 28 28 27 27 27 27 28 28 29 30 31 31 32 32 33 33 33 33 32 33 34 34 35 36 36 37 38 38 38 39 37 33 30 28 27 26 27 27 28 28 29 29 29 27 25 23 20 15 10 6 13
22 22 23 23 24 24 24 24 24 23 24 24 25 26 27 27 26 25 24 23 22 21 21 21 22 23 25 26 26 27 27 28 28 28 28 27 26 26 27 28 28 29 30 30 31 32 32 32 32 32 32 31 30 31 31 32 33 33 33 34 35 35 35 34 32 28 25 25 24 23 23 24 25 27 27 24 20 19 17 15 13 9 7 11 16
21 21 22 23 24 24 24 24 23 23 23 23 23 24 24 24 23 23 22 22 22 22 23 23 24 26 26 27 28 28 28 29 28 28 28 27 27 28 29 29 29 30 30 31 31 32 32 31 31 31 30 29 29 29 30 30 30 31 31 31 31 31 30 29 25 22 21 20 20 20 19 20 22 22 20 15 11 9 8 8 9 12 13 14 14
19 19 20 21 22 23 23 23 22 22 22 22 22 22 22 22 22 23 23 23 24 25 25 26 26 27 27 27 28 28 29 29 29 29 29 29 29 30 30 30 29 30 30 31 31 31 31 30 29 28 28 28 28 28 28 28 28 28 28 27 26 26 25 22 19 18 17 17 17 17 17 16 17 16 14 11 8 6 3 1 5 7 8 7 7
17 17 17 19 20 21 21 21 21 21 21 21 22 22 22 23 23 24 25 25 26 26 26 27 27 27 28 28 29 29 30 30 30 30 30 31 31 31 31 31 31 31 32 32 32 31 30 29 27 26 27 27 27 26 26 25 24 24 24 23 21 20 19 15 13 13 14 15 16 17 16 15 16 16 15 13 10 8 5 2 1 3 4 4 6
15 16 16 17 19 20 20 21 21 21 21 22 22 23 23 24 24 25 25 26 26 27 27 27 27 28 29 29 30 30 30 31 31 31 32 32 32 33 33 33 33 33 34 33 32 30 29 27 26 25 25 25 25 24 23 22 21 21 20 18 17 16 14 11 9 9 11 13 14 15 15 15 16 17 17 17 16 14 12 11 11 11 12 13 13
15 16 17 17 18 19 19 20 21 21 22 22 23 23 24 24 25 25 26 27 27 28 28 28 28 29 29 29 29 30 30 30 31 31 32 33 33 33 33 34 34 34 33 31 30 28 27 26 25 24 23 23 23 22 20 19 19 18 17 16 14 13 12 10 8 7 6 8 10 11 11 11 12 13 13 14 14 14 14 14 14 14 14 13 12
16 17 17 18 18 19 19 20 21 22 22 23 23 24 25 25 26 27 27 27 28 28 29 29 29 29 29 29 29 29 29 30 30 31 32 32 33 33 33 33 32 31 30 28 27 26 25 24 23 21 20 20 20 20 19 18 18 18 17 16 15 13 12 10 9 7 5 4 4 5 6 6 7 7 8 9 9 10 10 10 11 10 10 8 8
17 18 18 18 18 19 20 20 21 22 23 23 24 24 25 26 26 27 27 27 27 28 28 28 28 27 27 27 28 28 28 29 29 29 29 29 30 30 31 30 29 26 25 24 23 22 22 21 20 19 19 19 19 18 18 18 18 18 18 17 16 15 13 10 8 7 7 5 3 0 2 2 2 2 3 3 4 5 5 6 6 6 5 5 5
17 18 18 18 18 19 19 20 21 22 22 23 24 24 24 25 25 25 26 26 26 26 25 25 25 25 25 25 26 26 26 26 26 26 26 26 26 26 26 25 23 21 20 20 20 20 21 20 20 19 19 18 18 18 18 18 18 17 17 18 18 17 15 12 10 9 9 9 8 6 4 3 3 2 2 1 1 2 2 2 2 2 2 2 2
16 16 16 17 18 18 19 20 21 21 22 22 23 23 23 24 24 24 24 24 23 23 23 23 23 23 23 23 23 23 23 23 23 23 22 22 22 22 21 21 20 19 19 19 19 20 20 20 20 20 20 20 20 19 18 17 16 17 17 18 19 19 18 15 13 12 12 12 12 11 10 8 7 7 6 5 4 4 4 3 2 1 1 0 1
Wind_Direction
203 205 207 208 210 211 212 212 212 213 214 215 217 217 217 218 219 220 221 220 216 213 213 214 212 206 202 200 200 197 188 184 186 186 177 167 169 176 186 195 201 209 215 217 219 218 218 223 227 228 231 232 234 236 235 233 233 233 240 249 257 268 277 300 321 334 349 5 10 8 6 358 352 348 346 346 345 343 341 337 331 325 318 314 310
204 204 207 210 211 213 213 213 213 213 213 214 214 214 215 216 218 221 223 224 221 216 213 212 210 205 201 198 198 200 195 191 193 189 178 173 171 165 164 174 189 206 217 221 224 225 223 222 226 231 236 235 234 240 242 243 246 247 250 253 256 262 265 270 275 283 295 303 308 319 330 335 334 332 330 330 330 330 330 329 324 318 312 308 305
206 206 208 211 213 214 214 213 213 213 214 215 214 214 215 216 218 222 223 226 226 221 215 213 212 209 204 200 199 202 203 206 210 208 200 199 202 202 199 186 181 195 208 218 225 230 231 229 227 231 239 242 239 241 244 246 248 250 253 257 260 263 266 269 271 272 276 278 279 287 290 292 302 308 311 313 315 316 318 319 317 312 308 306 304
207 206 206 211 214 216 216 215 214 215 215 216 215 215 216 217 220 222 223 226 227 224 219 216 215 214 211 208 205 204 206 210 216 217 219 227 232 239 243 240 235 224 213 217 225 232 235 235 233 234 239 245 246 247 248 249 250 251 252 255 259 263 266 268 271 272 272 272 273 277 278 280 286 290 295 301 304 307 310 310 309 307 305 305 304
209 206 204 208 213 216 218 217 217 217 216 217 216 216 217 218 221 223 224 226 226 225 223 219 218 217 215 213 212 211 212 216 222 223 225 232 238 246 251 252 255 255 252 249 246 245 242 238 236 238 240 244 246 250 254 256 256 255 254 254 255 259 262 265 268 269 271 273 274 275 275 277 279 282 287 291 293 297 301 302 302 301 302 304 304
210 207 203 206 212 217 220 220 220 220 219 219 218 217 218 219 221 223 225 227 228 227 226 223 222 221 219 216 214 213 215 219 224 227 230 235 239 244 250 256 262 265 268 270 269 266 262 253 245 244 246 247 247 249 253 257 259 260 260 259 257 256 258 262 265 266 268 270 272 273 275 276 276 277 281 283 284 286 290 296 298 298 299 301 301
212 209 203 203 208 214 219 221 223 223 223 222 221 220 220 220 222 223 225 229 230 230 230 228 227 226 225 223 218 215 217 219 222 225 230 235 240 244 249 255 262 268 273 276 277 277 274 269 263 258 256 256 255 253 253 255 258 260 262 263 262 260 259 259 262 265 267 269 269 271 275 276 276 275 276 277 278 281 288 293 292 293 297 299 299
214 213 207 204 205 210 217 221 224 226 226 226 225 224 224 223 224 225 226 230 232 232 233 232 231 230 229 229 227 225 225 224 222 224 227 233 238 244 251 258 264 269 273 276 277 279 278 276 273 270 268 267 266 263 260 258 259 260 261 263 264 264 264 263 263 264 265 267 268 269 272 274 275 275 276 276 277 283 291 290 287 289 294 295 295
217 217 214 209 206 207 213 218 222 225 226 227 227 227 227 227 227 227 228 230 232 233 235 234 233 231 230 231 231 232 232 229 226 226 229 234 240 247 255 263 269 272 275 276 276 276 278 278 278 277 276 274 272 270 267 264 263 263 263 265 266 266 267 267 266 266 267 268 268 268 269 270 273 275 276 277 280 286 288 285 285 290 292 291 291
219 220 219 215 210 209 212 216 220 222 224 226 227 227 228 229 229 229 229 231 231 233 234 235 234 231 230 231 232 233 233 231 231 232 236 241 248 255 261 266 271 274 275 275 275 275 276 277 278 278 276 274 272 271 270 270 269 269 268 269 269 269 270 270 270 270 270 271 271 271 270 269 270 273 275 278 280 282 282 283 287 290 289 288 290
220 221 222 218 214 213 214 215 217 220 223 225 226 227 228 229 231 231 231 231 231 232 232 234 234 232 230 231 231 232 232 232 235 239 244 250 257 263 267 270 272 273 273 273 274 275 276 276 276 275 274 274 273 272 272 272 271 271 270 270 270 271 271 272 272 272 272 273 273 273 272 272 272 272 273 275 277 278 280 283 286 287 287 288 290
219 221 222 220 217 216 215 216 217 218 221 224 225 226 227 229 231 232 232 232 232 232 232 233 233 233 232 231 231 231 232 234 240 244 249 254 260 265 268 270 271 271 272 273 275 277 278 279 279 277 278 278 277 276 275 274 274 274 273 272 271 270 270 271 272 273 273 274 275 274 274 275 275 273 273 274 276 277 278 280 282 285 287 288 289
218 219 220 221 220 218 217 217 218 218 219 222 225 227 227 229 231 232 233 233 234 234 234 233 234 234 233 231 229 231 234 237 242 247 251 254 258 261 263 265 267 269 271 274 277 279 281 283 284 284 286 285 284 283 282 281 281 280 279 277 275 273 273 272 273 273 274 275 275 276 277 279 279 279 279 279 276 275 275 276 279 283 284 286 289
216 217 217 219 221 221 220 220 219 219 220 221 223 226 227 228 231 232 233 234 234 234 234 233 232 232 232 231 231 234 236 239 243 247 249 251 254 258 261 263 266 269 273 276 279 281 283 284 284 285 287 287 287 287 287 286 285 283 282 280 279 279 279 277 276 276 276 276 277 279 281 281 282 284 283 281 277 274 273 274 276 278 280 281 282
211 211 212 214 217 219 221 222 222 221 221 222 223 224 225 226 228 229 231 233 233 232 232 231 230 230 231 233 235 235 237 240 244 245 247 251 255 259 263 266 270 273 276 279 282 284 285 285 285 285 286 285 285 285 286 286 285 284 283 282 283 284 283 282 281 280 279 279 279 281 282 282 282 282 281 278 277 276 275 274 274 273 273 274 274
208 205 205 207 209 212 216 220 223 224 223 224 224 224 224 225 226 227 229 231 232 231 229 228 228 229 231 234 236 236 238 242 246 248 251 254 257 261 264 268 272 274 276 279 280 282 282 283 285 287 287 286 286 286 287 286 285 284 283 283 283 283 282 283 283 281 281 281 281 282 283 282 281 280 278 276 276 277 277 275 273 271 271 273 274
214 213 210 208 207 207 208 212 217 222 224 226 227 226 226 226 226 227 228 230 232 233 232 231 231 232 233 236 237 238 241 246 250 252 255 257 259 262 266 269 271 272 274 276 278 279 281 282 284 286 286 287 289 289 289 288 287 287 286 285 283 282 283 283 281 280 280 281 281 282 282 281 280 279 279 277 276 276 275 273 272 272 273 274 273
221 223 222 223 222 218 211 206 207 213 219 224 226 228 228 228 228 228 229 230 232 234 235 236 237 237 238 239 241 243 246 250 253 256 258 261 263 265 267 269 269 269 271 273 275 277 278 280 282 284 286 288 290 290 291 290 289 290 289 287 286 286 287 285 282 282 281 280 279 279 278 278 279 279 278 277 276 275 272 271 271 271 270 270 271
224 226 228 231 234 233 228 217 208 207 211 216 220 224 227 229 230 230 231 232 233 235 236 238 240 241 242 243 244 246 249 252 255 258 261 264 267 268 269 270 269 270 273 274 276 277 278 280 282 284 286 289 290 292 292 291 291 291 289 286 286 288 288 285 284 283 281 280 280 280 279 279 279 278 278 278 277 276 274 274 273 270 268 268 269
226 229 232 234 235 237 237 231 221 214 210 210 211 215 220 224 227 230 232 233 235 236 237 240 242 243 244 246 247 249 251 253 256 259 262 266 268 270 271 271 272 275 278 279 280 281 283 285 286 288 289 290 290 291 290 290 289 288 286 285 285 286 285 284 284 283 282 282 283 281 280 278 276 275 274 275 275 275 276 277 277 276 275 274 271
233 236 241 242 241 242 241 241 236 227 220 216 212 209 211 216 220 225 229 232 234 236 238 240 242 244 246 248 250 251 253 255 257 260 263 265 268 270 271 272 275 278 280 281 282 284 286 288 290 292 292 291 291 290 289 289 289 288 287 285 283 283 284 284 283 282 282 283 284 283 280 279 278 276 276 277 277 277 279 280 280 279 278 276 274
237 239 243 247 250 251 249 248 247 241 233 225 218 213 211 213 215 219 223 227 231 235 237 240 242 245 246 247 249 252 254 256 259 261 263 265 267 269 271 273 275 278 279 280 282 284 286 289 290 292 292 292 292 292 291 290 289 289 290 287 284 285 289 288 287 285 284 284 284 284 282 282 282 280 279 280 280 281 283 284 285 284 282 280 280
232 234 237 242 248 254 255 255 253 251 246 238 229 222 218 215 216 217 219 222 227 231 234 237 240 243 245 246 248 251 253 256 258 260 263 265 267 269 271 273 275 277 278 279 282 284 285 287 289 290 290 291 291 291 291 290 289 289 290 288 288 291 293 290 288 287 285 284 285 287 288 288 288 286 285 285 286 287 288 288 287 287 285 283 283
230 231 233 236 241 247 252 254 254 254 253 250 244 236 227 222 220 219 219 221 225 228 231 234 238 240 242 244 247 249 252 255 257 259 261 263 266 269 271 273 275 276 277 279 280 282 283 285 287 287 286 286 287 287 288 289 289 291 291 289 289 292 292 289 284 281 281 284 286 287 288 287 286 286 287 288 288 288 288 287 286 284 284 284 284
231 232 233 235 238 240 245 249 251 252 253 254 253 249 240 232 226 223 223 224 226 229 231 233 236 239 240 242 245 248 251 254 256 258 259 262 265 268 270 272 274 275 277 280 282 283 285 286 286 285 285 286 287 287 289 290 291 293 293 292 293 295 295 294 290 287 287 287 286 285 286 284 283 283 285 286 286 285 286 286 286 285 285 285 284
230 231 232 234 237 239 242 246 249 251 252 253 255 255 251 245 237 231 228 228 229 231 233 235 237 239 240 242 245 247 250 253 255 258 260 263 266 268 270 273 275 278 280 282 283 284 284 284 284 285 286 287 288 289 290 291 292 292 293 294 295 296 296 295 293 292 291 289 287 287 288 288 286 286 286 285 284 283 283 285 287 286 284 283 283
232 231 232 234 237 240 243 246 249 252 253 253 253 254 253 251 248 242 237 234 234 234 236 238 240 242 244 245 246 249 251 253 255 258 260 263 265 268 271 274 276 278 280 281 280 279 279 279 281 284 286 286 287 288 288 289 290 290 292 292 293 295 294 293 292 292 292 292 292 292 293 292 290 288 287 286 284 282 282 282 283 283 282 282 281
235 234 234 235 237 240 243 245 248 251 253 254 253 254 254 254 254 252 250 247 243 241 240 241 242 245 247 248 249 250 252 254 256 257 259 261 264 267 269 271 272 273 274 275 275 275 277 279 282 285 286 286 287 287 288 289 290 292 293 294 295 296 296 295 294 294 295 295 295 295 295 294 292 290 288 286 285 284 282 279 278 278 279 279 277
237 237 236 236 238 240 243 245 246 248 250 252 253 254 256 256 256 256 256 256 253 250 246 244 243 244 246 248 249 251 252 253 255 257 258 260 262 263 264 265 265 267 268 270 274 277 280 282 284 285 287 287 288 289 290 292 294 295 297 298 298 298 298 298 297 297 297 296 296 295 295 294 292 291 289 288 287 286 283 279 277 276 276 276 275
238 238 238 238 239 241 245 247 247 247 247 248 250 250 252 253 255 256 257 256 255 252 250 247 246 245 246 247 248 250 252 254 256 257 258 259 258 258 258 259 261 265 268 272 275 279 281 283 285 286 287 288 290 292 293 296 298 299 299 299 299 299 298 298 298 298 298 296 295 295 295 294 293 291 290 289 290 289 286 283 281 280 278 278 278
240 240 240 240 241 243 245 247 247 246 245 245 245 245 246 248 251 253 253 252 250 248 247 248 248 248 248 248 249 250 251 252 254 255 255 255 255 255 256 258 262 266 270 273 276 279 281 283 284 286 288 290 293 296 299 300 301 301 300 299 299 299 298 298 299 298 297 297 296 296 295 295 295 293 291 289 288 288 288 287 286 284 282 280 279
242 242 241 241 243 244 245 245 245 245 245 245 245 244 245 247 248 249 250 250 250 249 249 249 249 249 249 249 249 250 250 250 251 252 253 254 256 258 260 263 266 269 272 275 278 280 282 284 286 289 292 296 299 301 302 302 301 301 300 300 300 300 300 300 300 298 298 298 297 297 296 296 295 293 291 290 289 289 289 288 287 284 282 280 279
242 243 242 241 242 243 244 244 245 245 245 245 245 247 248 249 250 251 250 249 250 251 251 251 250 249 249 249 250 250 250 250 251 253 256 259 262 264 267 269 271 273 275 277 279 281 284 287 291 294 298 300 302 303 303 302 302 301 301 302 302 302 302 302 301 300 299 299 297 297 297 296 294 293 291 291 291 290 289 287 285 282 280 279 279
241 242 243 242 241 240 241 243 244 245 246 246 248 249 250 250 250 250 250 250 249 249 251 251 250 249 250 251 253 252 252 252 253 256 259 262 265 268 270 272 273 274 276 278 280 284 287 291 294 298 300 302 303 304 304 303 303 303 302 303 303 304 304 304 303 302 300 299 298 298 298 297 295 294 294 293 292 290 288 286 284 281 278 277 279
239 240 241 242 241 239 239 240 240 241 243 245 247 248 249 248 247 245 245 246 247 248 250 251 249 247 248 249 251 253 254 255 256 259 261 264 266 269 271 272 274 276 278 281 284 287 290 294 297 300 303 304 305 305 304 304 303 303 303 303 304 305 305 305 304 304 302 301 300 300 300 299 297 296 296 295 293 291 288 286 284 284 282 282 284
237 237 238 240 240 237 235 235 236 237 238 239 240 242 243 244 244 243 241 240 241 244 246 247 247 247 247 248 250 252 253 256 258 261 263 265 267 269 271 273 276 279 282 284 287 291 294 298 301 303 305 305 305 304 304 304 304 304 305 305 306 307 307 307 307 307 305 304 303 303 302 301 299 297 296 296 294 293 291 289 288 287 283 277 275
239 235 235 235 236 234 231 229 230 233 236 237 236 237 238 238 238 241 243 241 240 242 244 245 246 247 247 248 250 252 255 257 259 261 264 266 268 271 274 277 280 282 284 286 290 294 298 301 303 304 304 304 304 304 305 305 305 306 307 307 308 309 310 310 310 309 308 308 308 307 306 305 303 301 300 299 298 296 294 291 288 285 279 271 268
243 238 233 232 232 233 233 231 228 229 231 231 229 231 234 236 236 239 243 244 243 243 244 246 248 249 250 252 255 257 259 260 262 264 267 269 272 274 276 278 280 281 284 288 292 296 299 301 303 304 304 304 304 304 304 305 306 307 307 308 310 311 312 312 311 310 311 312 312 311 311 310 308 308 307 305 301 296 291 288 284 279 276 275 270
244 239 234 231 229 230 233 234 233 232 231 230 229 230 233 236 239 241 244 245 245 245 246 249 252 254 256 257 259 260 262 263 265 268 269 271 273 275 276 278 280 283 287 291 293 296 299 301 302 303 302 302 302 303 304 305 307 307 308 309 311 313 313 312 311 311 311 313 314 316 319 321 323 328 331 327 318 307 296 288 280 274 279 284 271
240 238 235 233 230 230 232 234 237 238 238 236 236 236 238 240 242 245 246 248 249 250 251 253 254 255 257 258 259 261 263 264 266 267 268 270 273 275 277 280 283 286 289 291 293 297 299 301 301 300 299 300 301 302 304 306 307 308 309 311 313 314 313 312 311 311 313 318 324 331 337 342 347 354 359 1 0 355 342 325 308 297 294 287 257
240 237 236 235 233 232 233 235 237 239 240 241 241 242 243 246 248 250 251 253 254 255 255 255 255 256 257 258 259 260 262 263 265 267 269 272 274 276 278 281 284 287 289 292 295 298 299 298 297 297 297 299 301 302 305 307 308 309 312 314 315 315 314 312 310 310 314 322 332 341 348 352 354 354 355 358 4 7 6 1 352 337 316 250 205
242 238 236 236 235 234 235 235 236 237 239 241 242 243 245 247 249 250 251 252 251 251 250 250 250 252 254 255 257 259 261 263 265 267 270 272 274 275 278 281 283 286 290 293 294 295 294 294 294 295 296 299 301 303 306 308 309 310 313 316 316 316 315 313 312 314 317 321 328 337 344 345 344 346 352 358 6 12 14 18 27 45 94 134 154
245 240 237 236 235 235 235 235 235 236 237 239 241 243 244 246 246 247 246 245 244 244 244 245 246 249 252 256 259 261 264 265 267 269 271 272 274 275 278 281 284 287 290 291 291 290 290 290 292 294 296 298 301 304 306 306 307 310 314 316 317 316 316 317 321 327 330 331 334 340 342 338 338 343 351 356 4 21 39 67 97 113 123 131 141
248 245 242 239 236 235 236 236 236 237 237 237 239 241 244 245 247 248 248 248 248 248 249 250 252 255 257 260 263 264 266 268 270 271 273 274 276 278 281 284 286 287 287 286 284 284 286 288 290 293 295 297 299 302 304 303 305 309 313 315 316 316 317 322 333 344 351 357 1 0 356 351 352 357 359 353 346 346 358 107 146 156 165 176 184
250 246 244 241 239 238 239 240 240 240 240 240 241 243 245 248 250 252 254 256 257 258 259 260 262 263 264 265 267 269 271 273 274 276 277 279 281 282 284 284 284 283 281 280 281 282 285 287 289 290 292 294 297 300 301 301 303 308 312 313 314 316 318 328 347 2 13 25 32 32 29 29 31 34 35 33 30 22 10 10 99 148 150 145 140
249 247 244 242 241 241 242 243 244 245 246 247 249 250 251 253 254 256 258 260 261 263 264 265 266 267 269 270 272 274 275 277 278 279 280 281 281 281 281 280 280 279 278 279 281 282 284 285 286 287 288 290 292 295 296 297 300 305 308 308 310 314 319 329 352 14 31 44 50 50 49 50 52 53 54 57 60 61 64 71 78 80 80 81 82
241 242 243 242 242 243 244 245 246 248 250 252 254 254 255 256 257 257 259 260 261 263 265 266 268 269 271 272 274 275 276 277 278 278 279 278 278 277 276 276 276 277 278 280 281 281 281 282 283 283 283 285 287 289 290 291 294 297 298 298 300 305 311 319 329 346 20 47 57 57 55 52 52 53 54 56 59 62 63 65 68 70 72 74 77
232 236 240 242 243 244 245 245 246 247 248 250 252 253 253 255 256 257 258 260 261 264 266 267 269 270 271 272 274 274 274 275 275 275 275 275 274 274 274 274 275 277 278 278 278 279 280 281 280 278 278 280 283 286 286 285 286 288 288 287 287 290 296 305 313 317 330 9 48 65 65 56 49 48 51 52 54 57 59 61 64 68 72 78 85
231 235 238 240 242 244 244 245 246 246 247 248 249 250 251 253 254 256 258 259 261 263 264 266 267 269 270 271 272 272 273 273 273 273 273 273 273 274 276 277 279 280 279 277 277 279 280 279 278 276 276 278 279 279 279 279 280 281 282 280 279 279 281 286 293 296 296 297 298 315 110 96 64 40 40 46 49 50 54 58 61 65 72 81 90
233 235 236 239 241 243 245 245 246 247 248 249 249 250 251 252 254 255 257 259 260 261 263 264 266 267 267 268 268 269 270 270 270 271 272 273 275 277 281 284 288 289 287 285 285 285 283 280 277 275 276 277 276 274 274 275 275 276 277 275 271 268 269 272 274 275 274 271 266 256 235 212 214 244 262 278 341 3 16 45 67 78 87 87 81
231 233 234 236 238 240 242 243 244 245 246 247 248 250 251 252 254 256 258 260 262 264 265 267 268 269 269 270 271 271 272 273 273 275 277 279 281 285 289 292 294 293 290 287 287 286 285 284 281 279 277 277 275 275 276 276 275 275 276 273 267 262 261 261 263 263 261 257 255 254 249 238 229 233 241 248 256 262 264 261 248 231 222 347 352